Regional Weather Roundup
Issued by NWS

Home | Current Version | Previous Version | Graphics & Text | Print | Product List | Glossary On
Versions: 1 2 3 4 5 6 7 8 9 10 11 12 13 14 15 16 17 18 19 20 21 22 23 24 25 26 27 28 29 30 31 32 33 34 35 36 37 38 39 40 41 42 43 44 45 46 47 48 49 50
000
ASUS43 KBIS 051610
RWRND

NORTH DAKOTA REGIONAL WEATHER ROUNDUP
NATIONAL WEATHER SERVICE BISMARCK ND
1000 AM CST MON DEC 05 2016

NOTE: "FAIR" INDICATES FEW OR NO CLOUDS BELOW 12,000 FEET WITH NO
SIGNIFICANT WEATHER AND/OR OBSTRUCTIONS TO VISIBILITY.


NDZ001>003-009>011-017-051700-
NORTHWEST NORTH DAKOTA

CITY           SKY/WX    TMP DP  RH WIND       PRES   REMARKS
WILLISTON      CLOUDY    23  17  78 NW26G35   29.61R BLWGSNOWWCI   6
MINOT          CLOUDY    22  20  92 CALM      29.54R
MINOT AFB      CLOUDY    19  17  92 S3        29.54R
$$

NDZ018>021-031>035-040>046-051700-
SOUTHWEST NORTH DAKOTA

CITY           SKY/WX    TMP DP  RH WIND       PRES   REMARKS
BISMARCK       LGT SNOW  29  27  92 W5        29.58R FOG
DICKINSON      CLOUDY    24  20  84 W29G39    29.56S FOG     WCI   7
GARRISON         N/A     33  30  88 W10       29.55R
HETTINGER ARPT MIX PCPN  25  21  85 NW28G35   29.58S FOG     WCI   9
$$

NDZ004>008-012>016-024-026-027-054-051700-
NORTHEAST NORTH DAKOTA

CITY           SKY/WX    TMP DP  RH WIND       PRES   REMARKS
GRAND FORKS    FOG       27  25  92 SE12      29.68F VSB 1   WCI  17
GRND FRKS AFB  CLOUDY    27  25  93 E8        29.69R FOG     WCI  18
DEVILS LAKE    LGT SNOW  24  23  96 E15       29.61F FOG     WCI  11
$$

NDZ022-023-025-028>030-036>039-047>053-051700-
SOUTHEAST NORTH DAKOTA

CITY           SKY/WX    TMP DP  RH WIND       PRES   REMARKS
FARGO          PTSUNNY   27  23  85 NE8       29.64F WCI  19
JAMESTOWN      CLOUDY    26  24  92 E9        29.57F WCI  17
$$





USA.gov is the U.S. government's official web portal to all federal, state and local government web resources and services.